Other Public Products
Issued by NWS Grand Forks, ND

Home | Current Version | Previous Version | Graphics & Text | Print | Product List | Glossary On
Versions: 1 2 3 4 5 6 7 8 9 10 11 12 13 14 15 16 17 18 19 20 21 22 23 24 25 26 27 28 29 30 31 32 33 34 35 36 37 38 39 40 41 42 43 44 45 46 47 48 49 50
000
FPUS83 KFGF 222231
OPUFGF
PRAIRIE TO PINES WEATHER ROUNDUP
NATIONAL WEATHER SERVICE EASTERN NORTH DAKOTA/GRAND FORKS ND
500 PM CDT WED MAR 22 2017

 **SATELLITE DATA USED TO AUGMENT SKY COVER AT AUTOMATED STATIONS**
 *****  WEATHER ACROSS EASTERN NORTH DAKOTA  *****

CITY           SKY/WX    TMP DP  RH WIND       PRES   REMARKS
GRAND FORKS    CLOUDY    30  17  58 SE26G33   30.17F WCI  16
GRAND FORKS AF CLOUDY    28  21  75 SE25      30.15F WCI  14
GRAND CITY NWS NOT AVBL
BUXTON         NOT AVBL
DEVILS LAKE    PTSUNNY   30  23  75 S28G33    30.06F WCI  15
FARGO          CLOUDY    33  15  47 SE24G35   30.20F WCI  20
WAHPETON ARPT  CLOUDY    32  23  69 SE24      30.21F WCI  19
$$

 *****  WEATHER ACROSS CENTRAL AND WESTERN NORTH DAKOTA  *****

CITY           SKY/WX    TMP DP  RH WIND       PRES   REMARKS
JAMESTOWN      CLOUDY    32  26  78 SE23      30.05F WCI  19
BISMARCK       FAIR      48  31  51 S16       29.92F
MINOT          PTSUNNY   41  30  65 SE16      29.87F
MINOT AFB      CLOUDY    38  29  70 S17       29.88F
GARRISON         N/A     43  32  65 S17       29.85F
WILLISTON      FAIR      49  32  52 SE12      29.80S
DICKINSON      FAIR      55  35  47 S12       29.76F
HETTINGER      FAIR      57  37  47 S12       29.80F
$$

 *****  OTHER OBSERVATIONS NORTHEAST NORTH DAKOTA  *****

CITY           SKY/WX    TMP DP  RH WIND       PRES   REMARKS
WALHALLA       NOT AVBL
LANGDON        NOT AVBL
CAVALIER       NOT AVBL
GRAFTON        LGT SNOW  30  21  69 SE23G31   30.17F WCI  17
CANDO          NOT AVBL
FORT TOTTEN      N/A     30  23  74 S16       29.95  WCI  19
ROLLA          CLOUDY    27  25  93 S24G33    30.00S WCI  12
RUGBY            N/A     32  28  86 SE21G28   29.96F WCI  20
 ***** THE ABOVE OBSERVATIONS ARE NON NWS ARE NOT QUALITY
        CONTROLLED AND MAY MIS-REPORT RAIN FOR SNOW...
$$

 *****  OTHER OBSERVATIONS SOUTHEAST NORTH DAKOTA *****

CITY           SKY/WX    TMP DP  RH WIND       PRES   REMARKS
COOPERSTOWN    CLOUDY    28  23  80 SE24G31   30.09F WCI  14
VALLEY CITY    FLURRIES  28  25  86 SE24G36   30.12S WCI  14
OAKES          NOT AVBL
GWINNER        CLOUDY    32  25  74 MISG      30.11F
SHEYENNE NWR     N/A     31  22  69 SE21      29.95S WCI  18
BUFFALO        NOT AVBL
WYNDMERE         N/A     30  27  86 SE22        N/A  WCI  17
 ***** THE ABOVE OBSERVATIONS ARE NON NWS ARE NOT QUALITY
       CONTROLLED AND MAY MIS-REPORT RAIN FOR SNOW...
$$

  *****  WEATHER ACROSS NORTHERN MINNESOTA  *****

CITY           SKY/WX    TMP DP  RH WIND       PRES   REMARKS
FLAG ISLAND    PTSUNNY   30  16  55 S15       30.24F WCI  19
WARROAD        FAIR      32  12  43 S12       30.24F WCI  23
ROSEAU         CLOUDY    34  14  44 SE16      30.22F WCI  23
HALLOCK        CLOUDY    30  18  59 S22       30.18F WCI  17
THF RVR FALLS    N/A    N/A N/A N/A MISG        N/A
HALSTAD          N/A     29  21  71 SE17        N/A  WCI  18
FOSSTON        CLOUDY    32  10  40 S15       30.23F WCI  22
BAUDETTE       CLOUDY    34   8  33 SE10      30.25F
WASKISH        CLOUDY    36   9  32 SE9G16    30.26F
CROOKSTON      CLOUDY    30  19  64 S21       30.20F WCI  17
$$
  *****  WEATHER ACROSS CENTRAL AND WEST MINNESOTA  *****

CITY           SKY/WX    TMP DP  RH WIND       PRES   REMARKS
BEMIDJI        CLOUDY    33   8  35 SE16G22   30.25F WCI  23
PARK RAPIDS    CLOUDY    35   7  31 SE18      30.27F WCI  24
WADENA         CLOUDY    32  12  43 SE20      30.27F WCI  20
DETROIT LAKES  PTSUNNY   32  12  43 SE23      30.23F WCI  19
MOORHEAD       DRIZZLE   32  16  51 S24G35    30.22F WCI  19
FERGUS FALLS   CLOUDY    32  19  59 S23       30.28F WCI  19
ELBOW LAKE     CLOUDY    32  21  65 SE25G33   30.25F WCI  19
MORRIS MN      MIX PCPN  34  21  60 SE26      30.24F WCI  21
STAPLES        CLOUDY    34   7  32 S14       30.29F WCI  24
WHEATON        CLOUDY    32  25  74 SE26      30.22F WCI  18
$$
  *****  WEATHER ELSEWHERE ACROSS MINNESOTA  *****

CITY           SKY/WX    TMP DP  RH WIND       PRES   REMARKS
DULUTH         FAIR      30  14  51 SE10      30.37F WCI  21
INTRNTL FALLS  FAIR      34   9  35 SE13      30.30F WCI  25
ELY            FAIR      32   5  32 S9        30.35S WCI  24
CLOQUET        FAIR      34   7  32 SE6       30.36F
BRAINERD       FAIR      36   6  28 SE12G22   30.32F
HIBBING        FAIR      33   6  32 S12G18    30.33F WCI  24
ALEXANDRIA     CLOUDY    33  17  51 SE18G26   30.28F WCI  22
SAINT CLOUD    PTSUNNY   36  12  37 SE16      30.35F
MINNEAPOLIS    PTSUNNY   39  12  33 SE15      30.40F
$$

  *****  WEATHER ACROSS SOUTH DAKOTA  *****

CITY           SKY/WX    TMP DP  RH WIND       PRES   REMARKS
SIOUX FALLS    CLOUDY    38  24  57 SE17G25   30.21F
BROOKINGS      CLOUDY    34  22  61 SE25G31   30.17F WCI  21
WATERTOWN      CLOUDY    32  22  66 SE21G30   30.13F WCI  20
HURON          CLOUDY    38  24  57 SE20G33   30.08F
SISSETON         N/A     33  25  72 S21G31    30.17F WCI  21
ABERDEEN       CLOUDY    36  24  62 S21G30    30.09S
MITCHELL       CLOUDY    40  25  55 SE21G32   30.12F
PIERRE         FAIR      55  31  39 S28G40    29.89F
MOBRIDGE       FAIR      47  30  51 SE28G33   29.89F
RAPID CITY     FAIR      62  43  49 N12       29.76F
$$

  *****  SOME WEATHER IN NEARBY STATES *****

CITY           SKY/WX    TMP DP  RH WIND       PRES   REMARKS
GLASGOW MT     FAIR      57  37  47 SW6       29.74F
GREAT FALLS MT FAIR      59  22  24 W18       29.74S
CHEYENNE WY    FAIR      67  29  24 S15       29.89F
SCOTTSBLUFF NE FAIR      71  34  25 SE13      29.83S
OMAHA NE       CLOUDY    51  22  31 SE17      30.23F
DES MOINES IA  CLOUDY    46  22  38 E13       30.34F
DAVENPORT IA   FAIR      43  16  33 SE10      30.45F
CHICAGO IL     FAIR      34  17  50 NE10      30.51F
EAU CLAIRE WI  FAIR      38   5  25 SE13      30.43F
LA CROSSE WI   FAIR      43   7  22 S9        30.45F
$$

  *****  SOME NATIONAL WEATHER *****

CITY           SKY/WX    TMP DP  RH WIND       PRES   REMARKS
LA GUARDIA NY  FAIR      34   3  27 NW21G36   30.26R WCI  22
RALEIGH NC     FAIR      58  14  17 NE15G24   30.22R
ATLANTA GA     PTSUNNY   66  40  38 N13       30.15R
NEW ORLEANS LA FAIR      80  56  43 CALM      30.11F
OKLAHOMA CITY  CLOUDY    71  56  58 E15       30.06S
ALBUQUERQUE NM PTSUNNY   79  13   8 SW12      29.95F
SALT LAKE CITY CLOUDY    57  46  66 N20       29.80F
LOS ANGELES CA PTSUNNY   63  54  72 W18       29.98F
BOISE ID       FAIR      59  27  29 VRB5      29.85F
SEATTLE WA     FAIR      54  45  71 SW14G25   29.87R
$$

*** WEATHER ACROSS MANITOBA...SASKATCHEWAN AND ONTARIO ***
                ***ONTARIO***

CITY           SKY/WX    TMP DP  RH WIND       PRES   REMARKS
GERALDTON      MOSUNNY   27  -8  22 W10       30.40F WCI  17
THUNDER BAY    PTSUNNY   32  10  40 S9        30.45F WCI  24
SIOUX LOOKOUT  MOSUNNY   32  -4  21 S7        30.32F
TORONTO        SUNNY     28   1  31 NW13      30.50R WCI  18
BIG TROUT LK   SUNNY     27  -4  26 W8        30.27F WCI  18
PICKLE LAKE    MOSUNNY   28  -4  24 SW10      30.32F WCI  19
DRYDEN         PTSUNNY   32   0  25 S14       30.29F WCI  22
KENORA         PTSUNNY   30   3  31 S15       30.25F WCI  19
$$
                *** MANITOBA***

CITY           SKY/WX    TMP DP  RH WIND       PRES   REMARKS
BRANDON        CLOUDY    28  21  74 SE22G30   29.99F WCI  15
DAUPHIN        CLOUDY    27  21  80 SE20      30.00F WCI  13
ISLAND LAKE    MOSUNNY   32  -6  19 S9        30.20F WCI  24
PILOT MOUND      N/A     27  21  80 SE26G33     N/A  WCI  11
THE PAS        CLOUDY    25  10  54 SE20      29.93F WCI  11
THOMPSON       PTSUNNY   28  -4  24 S7        30.08F WCI  21
WINNIPEG       FLURRIES  28  18  64 S20G29    30.18F WCI  15
LYNN LAKE      PTSUNNY   27   1  33 SE14      29.92F WCI  15
CHURCHILL      PTSUNNY   14   9  79 E6        30.15F WCI   5
GILLAM         MOSUNNY   28  -4  24 SW8       30.17F WCI  20
$$
                ***SASKATCHEWAN***

CITY           SKY/WX    TMP DP  RH WIND       PRES   REMARKS
ESTEVAN        PTSUNNY   37  30  75 SE15      29.82F
KINDERSLEY     MOSUNNY   50  37  62 W24G30    29.58R
LLOYDMINSTER   LGT SNOW  27  27 100 E8        29.56F FOG     WCI  18
PRINCE ALBERT  FRZ DRZL  25  23  93 SE14G23   29.68F FOG     WCI  13
REGINA         MOSUNNY   39  30  70 SE22G30   29.74F
YORKTON        CLOUDY    27  21  80 SE20G26   29.84F WC



USA.gov is the U.S. government's official web portal to all federal, state and local government web resources and services.